| time (UTC) | temp F | wind direction | speed knots | gust knots | rain 1hr in | rain 24hr in | rain mn in | humidity % | barometer mb |
| 20260831042301 | 84 | 129 | 1.7 | 6.1 | 0.00 | 0.00 | 0.00 | 66 | 1014.1 |
| 20260831041522 | 83 | 96 | 1.7 | 4.3 | 0.00 | 0.00 | 0.00 | 65 | 1013.8 |
| 20260831040003 | 83 | 128 | 2.6 | 7.0 | 0.00 | 0.00 | 0.00 | 65 | 1013.6 |
| 20260831035601 | 82 | 123 | 1.7 | 4.3 | 0.00 | 0.00 | 0.00 | 65 | 1013.8 |
| 20260831034701 | 82 | 124 | 0.9 | 4.3 | 0.00 | 0.00 | 0.00 | 66 | 1013.8 |
| 20260831034607 | 81 | 138 | 1.7 | 6.1 | 0.00 | 0.00 | 0.00 | 66 | 1013.5 |
| 20260831033801 | 82 | 120 | 0.9 | 2.6 | 0.00 | 0.00 | 0.00 | 65 | 1013.7 |
| 20260831033105 | 81 | 56 | 0.0 | 1.7 | 0.00 | 0.00 | 0.00 | 65 | 1013.3 |
| 20260831031604 | 81 | 49 | 0.0 | 0.9 | 0.00 | 0.00 | 0.00 | 63 | 1013.2 |
| 20260831031101 | 82 | 0 | 0.0 | 0.0 | 0.00 | 0.00 | 0.00 | 63 | 1013.4 |
| 20260831030201 | 82 | 0 | 0.0 | 0.0 | 0.00 | 0.00 | 0.00 | 61 | 1013.3 |
| 20260831030003 | 82 | 49 | 0.0 | 0.0 | 0.00 | 0.00 | 0.00 | 60 | 1013.1 |
| 20260831025301 | 82 | 0 | 0.0 | 0.0 | 0.00 | 0.00 | 0.00 | 59 | 1013.2 |
| 20260831024510 | 82 | 49 | 0.0 | 0.0 | 0.00 | 0.00 | 0.00 | 58 | 1012.9 |
| 20260831024401 | 83 | 0 | 0.0 | 0.0 | 0.00 | 0.00 | 0.00 | 58 | 1013.1 |
| 20260831023501 | 83 | 0 | 0.0 | 0.0 | 0.00 | 0.00 | 0.00 | 57 | 1013.0 |
| 20260831023004 | 82 | 49 | 0.0 | 0.0 | 0.00 | 0.00 | 0.00 | 56 | 1012.8 |
| 20260831021701 | 83 | 0 | 0.0 | 0.0 | 0.00 | 0.00 | 0.00 | 57 | 1012.8 |
| 20260831021605 | 83 | 49 | 0.0 | 0.0 | 0.00 | 0.00 | 0.00 | 58 | 1012.6 |
| 20260831020801 | 84 | 0 | 0.0 | 0.0 | 0.00 | 0.00 | 0.00 | 56 | 1012.7 |
| 20260831020012 | 83 | 49 | 0.0 | 0.0 | 0.00 | 0.00 | 0.00 | 55 | 1012.3 |
| 20260831015901 | 84 | 0 | 0.0 | 0.0 | 0.00 | 0.00 | 0.00 | 55 | 1012.5 |
| 20260831015001 | 85 | 49 | 0.0 | 0.9 | 0.00 | 0.00 | 0.00 | 55 | 1012.4 |
| 20260831014609 | 85 | 49 | 0.0 | 1.7 | 0.00 | 0.00 | 0.00 | 55 | 1012.1 |
| 20260831014101 | 86 | 50 | 0.9 | 1.7 | 0.00 | 0.00 | 0.00 | 55 | 1012.4 |
| 20260831013201 | 86 | 49 | 0.9 | 2.6 | 0.00 | 0.00 | 0.00 | 52 | 1012.3 |
| 20260831013111 | 86 | 49 | 0.9 | 2.6 | 0.00 | 0.00 | 0.00 | 51 | 1012.1 |
| 20260831012305 | 87 | 50 | 0.9 | 1.7 | 0.00 | 0.00 | 0.00 | 50 | 1012.2 |
| 20260831011507 | 88 | 49 | 0.9 | 1.7 | 0.00 | 0.00 | 0.00 | 48 | 1012.0 |
| 20260831011401 | 88 | 49 | 0.9 | 1.7 | 0.00 | 0.00 | 0.00 | 48 | 1012.2 |
| 20260831010122 | 90 | 49 | 0.0 | 1.7 | 0.00 | 0.00 | 0.00 | 45 | 1011.9 |
| 20260831004701 | 92 | 0 | 0.0 | 0.0 | 0.00 | 0.00 | 0.00 | 42 | 1012.1 |
| 20260831004503 | 92 | 44 | 0.0 | 0.0 | 0.00 | 0.00 | 0.00 | 41 | 1012.0 |
| 20260831003801 | 93 | 45 | 0.0 | 0.9 | 0.00 | 0.00 | 0.00 | 41 | 1012.2 |
| 20260831003003 | 93 | 44 | 0.0 | 0.9 | 0.00 | 0.00 | 0.00 | 40 | 1012.0 |
| 20260831002901 | 94 | 44 | 0.0 | 0.9 | 0.00 | 0.00 | 0.00 | 40 | 1012.2 |
| 20260831002001 | 94 | 154 | 0.0 | 1.7 | 0.00 | 0.00 | 0.00 | 39 | 1012.3 |
| 20260831001509 | 94 | 158 | 0.0 | 2.6 | 0.00 | 0.00 | 0.00 | 38 | 1012.0 |
| 20260831001101 | 95 | 144 | 0.9 | 2.6 | 0.00 | 0.00 | 0.00 | 39 | 1012.2 |
| 20260831000203 | 95 | 141 | 0.9 | 2.6 | 0.00 | 0.00 | 0.00 | 38 | 1012.1 |
| 20260831000116 | 95 | 124 | 0.9 | 2.6 | 0.00 | 0.00 | 0.00 | 37 | 1011.9 |
| 20260830235301 | 96 | 151 | 1.7 | 3.5 | 0.00 | 0.00 | 0.00 | 36 | 1012.1 |
| 20260830234606 | 96 | 153 | 1.7 | 3.5 | 0.00 | 0.00 | 0.00 | 35 | 1012.0 |
| 20260830234401 | 96 | 148 | 1.7 | 6.1 | 0.00 | 0.00 | 0.00 | 35 | 1012.3 |
| 20260830233501 | 97 | 148 | 1.7 | 6.1 | 0.00 | 0.00 | 0.00 | 34 | 1012.2 |
| 20260830233103 | 97 | 136 | 1.7 | 5.2 | 0.00 | 0.00 | 0.00 | 34 | 1012.0 |
| 20260830232601 | 98 | 148 | 3.5 | 6.1 | 0.00 | 0.00 | 0.00 | 33 | 1012.1 |
| 20260830231701 | 99 | 150 | 3.5 | 6.1 | 0.00 | 0.00 | 0.00 | 31 | 1012.2 |
| 20260830231508 | 98 | 155 | 2.6 | 6.1 | 0.00 | 0.00 | 0.00 | 31 | 1012.0 |
| 20260830230801 | 99 | 136 | 2.6 | 5.2 | 0.00 | 0.00 | 0.00 | 30 | 1012.2 |
| 20260830230005 | 99 | 145 | 2.6 | 7.0 | 0.00 | 0.00 | 0.00 | 31 | 1011.9 |
| 20260830225901 | 99 | 106 | 2.6 | 7.0 | 0.00 | 0.00 | 0.00 | 31 | 1012.2 |
| 20260830224504 | 100 | 96 | 1.7 | 7.0 | 0.00 | 0.00 | 0.00 | 32 | 1012.0 |
| 20260830224101 | 100 | 126 | 3.5 | 7.0 | 0.00 | 0.00 | 0.00 | 32 | 1012.2 |
| 20260830223201 | 101 | 127 | 3.5 | 7.8 | 0.00 | 0.00 | 0.00 | 31 | 1012.2 |
| 20260830223003 | 100 | 147 | 3.5 | 7.8 | 0.00 | 0.00 | 0.00 | 30 | 1012.0 |
| 20260830222301 | 101 | 94 | 1.7 | 7.0 | 0.00 | 0.00 | 0.00 | 29 | 1012.2 |
| 20260830221606 | 100 | 101 | 0.9 | 6.1 | 0.00 | 0.00 | 0.00 | 28 | 1011.9 |
| 20260830221401 | 101 | 110 | 1.7 | 6.1 | 0.00 | 0.00 | 0.00 | 30 | 1012.1 |
| 20260830220501 | 101 | 129 | 2.6 | 6.1 | 0.00 | 0.00 | 0.00 | 30 | 1012.2 |
| 20260830220003 | 101 | 123 | 2.6 | 6.1 | 0.00 | 0.00 | 0.00 | 29 | 1012.0 |
| 20260830214606 | 100 | 102 | 0.9 | 7.8 | 0.00 | 0.00 | 0.00 | 25 | 1012.1 |
| 20260830213104 | 101 | 120 | 3.5 | 9.6 | 0.00 | 0.00 | 0.00 | 29 | 1012.3 |
| 20260830212901 | 101 | 156 | 4.3 | 9.6 | 0.00 | 0.00 | 0.00 | 28 | 1012.5 |
| 20260830212001 | 102 | 137 | 3.5 | 7.0 | 0.00 | 0.00 | 0.00 | 29 | 1012.7 |
| 20260830211607 | 102 | 67 | 2.6 | 7.0 | 0.00 | 0.00 | 0.00 | 29 | 1012.6 |
| 20260830210201 | 102 | 159 | 2.6 | 9.6 | 0.00 | 0.00 | 0.00 | 30 | 1012.8 |
| 20260830210004 | 101 | 159 | 1.7 | 5.2 | 0.00 | 0.00 | 0.00 | 28 | 1012.5 |
| 20260830205301 | 101 | 136 | 4.3 | 7.8 | 0.00 | 0.00 | 0.00 | 25 | 1013.0 |
| 20260830204605 | 101 | 146 | 3.5 | 7.8 | 0.00 | 0.00 | 0.00 | 28 | 1012.9 |
| 20260830204401 | 102 | 168 | 4.3 | 7.0 | 0.00 | 0.00 | 0.00 | 29 | 1013.1 |
| 20260830203501 | 102 | 179 | 3.5 | 7.8 | 0.00 | 0.00 | 0.00 | 32 | 1013.3 |
| 20260830203003 | 101 | 192 | 2.6 | 7.0 | 0.00 | 0.00 | 0.00 | 37 | 1013.1 |
| 20260830202601 | 101 | 171 | 3.5 | 6.1 | 0.00 | 0.00 | 0.00 | 36 | 1013.4 |
| 20260830201605 | 101 | 153 | 3.5 | 7.0 | 0.00 | 0.00 | 0.00 | 38 | 1013.1 |
| 20260830200801 | 100 | 194 | 2.6 | 7.8 | 0.00 | 0.00 | 0.00 | 40 | 1013.6 |
| 20260830200006 | 100 | 225 | 3.5 | 10.4 | 0.00 | 0.00 | 0.00 | 39 | 1013.5 |
| 20260830195901 | 101 | 170 | 4.3 | 10.4 | 0.00 | 0.00 | 0.00 | 40 | 1013.7 |
| 20260830194609 | 99 | 179 | 0.9 | 6.1 | 0.00 | 0.00 | 0.00 | 43 | 1013.5 |
| 20260830194101 | 99 | 153 | 1.7 | 6.1 | 0.00 | 0.00 | 0.00 | 42 | 1013.8 |
| 20260830193201 | 100 | 187 | 2.6 | 6.1 | 0.00 | 0.00 | 0.00 | 42 | 1014.0 |
| 20260830193004 | 99 | 186 | 2.6 | 6.1 | 0.00 | 0.00 | 0.00 | 43 | 1013.7 |
| 20260830192301 | 99 | 196 | 2.6 | 8.7 | 0.00 | 0.00 | 0.00 | 43 | 1014.1 |
| 20260830191505 | 99 | 247 | 3.5 | 8.7 | 0.00 | 0.00 | 0.00 | 45 | 1013.8 |
| 20260830191401 | 99 | 165 | 2.6 | 8.7 | 0.00 | 0.00 | 0.00 | 45 | 1014.2 |
| 20260830190501 | 98 | 175 | 1.7 | 7.0 | 0.00 | 0.00 | 0.00 | 44 | 1014.2 |
| 20260830190106 | 98 | 101 | 1.7 | 7.0 | 0.00 | 0.00 | 0.00 | 45 | 1014.0 |
| 20260830185601 | 98 | 212 | 2.6 | 6.1 | 0.00 | 0.00 | 0.00 | 45 | 1014.3 |
| 20260830184701 | 99 | 166 | 3.5 | 6.1 | 0.00 | 0.00 | 0.00 | 45 | 1014.5 |
| 20260830184618 | 98 | 164 | 2.6 | 7.0 | 0.00 | 0.00 | 0.00 | 44 | 1014.2 |
| 20260830183801 | 98 | 166 | 4.3 | 7.8 | 0.00 | 0.00 | 0.00 | 44 | 1014.6 |
| 20260830183004 | 97 | 199 | 2.6 | 8.7 | 0.00 | 0.00 | 0.00 | 48 | 1014.4 |
| 20260830182901 | 98 | 162 | 3.5 | 8.7 | 0.00 | 0.00 | 0.00 | 49 | 1014.6 |
| 20260830182001 | 98 | 171 | 3.5 | 8.7 | 0.00 | 0.00 | 0.00 | 46 | 1014.7 |
| 20260830181505 | 97 | 159 | 4.3 | 8.7 | 0.00 | 0.00 | 0.00 | 48 | 1014.5 |
| 20260830181101 | 97 | 157 | 2.6 | 7.0 | 0.00 | 0.00 | 0.00 | 47 | 1014.8 |
| 20260830180201 | 97 | 173 | 3.5 | 7.8 | 0.00 | 0.00 | 0.00 | 49 | 1014.8 |
| 20260830180104 | 97 | 174 | 2.6 | 7.8 | 0.00 | 0.00 | 0.00 | 49 | 1014.5 |
| 20260830175301 | 97 | 165 | 3.5 | 8.7 | 0.00 | 0.00 | 0.00 | 46 | 1014.9 |
| 20260830174538 | 96 | 162 | 5.2 | 8.7 | 0.00 | 0.00 | 0.00 | 50 | 1014.7 |
| 20260830174401 | 96 | 184 | 1.7 | 7.0 | 0.00 | 0.00 | 0.00 | 53 | 1015.0 |
| 20260830173501 | 96 | 184 | 2.6 | 7.0 | 0.00 | 0.00 | 0.00 | 51 | 1015.1 |
| 20260830173107 | 95 | 173 | 3.5 | 7.0 | 0.00 | 0.00 | 0.00 | 52 | 1015.0 |
| 20260830172601 | 95 | 183 | 2.6 | 6.1 | 0.00 | 0.00 | 0.00 | 52 | 1015.2 |
| 20260830171701 | 95 | 170 | 4.3 | 7.8 | 0.00 | 0.00 | 0.00 | 53 | 1015.4 |
| 20260830171510 | 94 | 153 | 4.3 | 7.8 | 0.00 | 0.00 | 0.00 | 53 | 1015.2 |
| 20260830170106 | 94 | 132 | 1.7 | 7.0 | 0.00 | 0.00 | 0.00 | 55 | 1015.4 |
| 20260830165901 | 94 | 170 | 3.5 | 7.0 | 0.00 | 0.00 | 0.00 | 55 | 1015.7 |
| 20260830165001 | 94 | 166 | 3.5 | 7.8 | 0.00 | 0.00 | 0.00 | 56 | 1015.8 |
| 20260830164508 | 93 | 90 | 2.6 | 6.1 | 0.00 | 0.00 | 0.00 | 56 | 1015.4 |
| 20260830164101 | 93 | 165 | 3.5 | 6.1 | 0.00 | 0.00 | 0.00 | 58 | 1015.7 |
| 20260830163201 | 93 | 163 | 3.5 | 7.0 | 0.00 | 0.00 | 0.00 | 58 | 1015.8 |
| 20260830163003 | 92 | 163 | 4.3 | 7.0 | 0.00 | 0.00 | 0.00 | 60 | 1015.5 |
| 20260830162301 | 92 | 173 | 3.5 | 7.0 | 0.00 | 0.00 | 0.00 | 60 | 1015.8 |
| 20260830161605 | 91 | 189 | 5.2 | 7.0 | 0.00 | 0.00 | 0.00 | 60 | 1015.5 |
| 20260830161401 | 92 | 171 | 2.6 | 7.0 | 0.00 | 0.00 | 0.00 | 60 | 1015.8 |
| 20260830160501 | 90 | 176 | 2.6 | 6.1 | 0.00 | 0.00 | 0.00 | 63 | 1015.8 |
| 20260830160009 | 90 | 175 | 0.9 | 6.1 | 0.00 | 0.00 | 0.00 | 62 | 1015.6 |
| 20260830155601 | 90 | 173 | 3.5 | 6.1 | 0.00 | 0.00 | 0.00 | 62 | 1016.0 |
| 20260830154701 | 89 | 181 | 1.7 | 6.1 | 0.00 | 0.00 | 0.00 | 64 | 1016.0 |
| 20260830154604 | 88 | 184 | 0.9 | 6.1 | 0.00 | 0.00 | 0.00 | 64 | 1015.7 |
| 20260830153009 | 88 | 180 | 2.6 | 5.2 | 0.00 | 0.00 | 0.00 | 64 | 1015.9 |
| 20260830152901 | 88 | 188 | 2.6 | 5.2 | 0.00 | 0.00 | 0.00 | 64 | 1016.1 |
| 20260830152001 | 88 | 189 | 1.7 | 5.2 | 0.00 | 0.00 | 0.00 | 65 | 1016.2 |
| 20260830151612 | 87 | 162 | 0.9 | 4.3 | 0.00 | 0.00 | 0.00 | 65 | 1016.0 |
| 20260830150201 | 86 | 146 | 1.7 | 4.3 | 0.00 | 0.00 | 0.00 | 68 | 1016.3 |
| 20260830150106 | 86 | 207 | 0.0 | 4.3 | 0.00 | 0.00 | 0.00 | 67 | 1016.1 |
| 20260830145301 | 86 | 158 | 2.6 | 5.2 | 0.00 | 0.00 | 0.00 | 68 | 1016.4 |
| 20260830144604 | 85 | 212 | 1.7 | 7.0 | 0.00 | 0.00 | 0.00 | 67 | 1016.2 |
| 20260830144401 | 85 | 168 | 3.5 | 7.0 | 0.00 | 0.00 | 0.00 | 68 | 1016.5 |
| 20260830143501 | 85 | 178 | 3.5 | 6.1 | 0.00 | 0.00 | 0.00 | 68 | 1016.5 |
| 20260830143014 | 84 | 154 | 2.6 | 5.2 | 0.00 | 0.00 | 0.00 | 68 | 1016.2 |
| 20260830142601 | 84 | 174 | 2.6 | 5.2 | 0.00 | 0.00 | 0.00 | 69 | 1016.4 |
| 20260830141701 | 83 | 160 | 1.7 | 3.5 | 0.00 | 0.00 | 0.00 | 70 | 1016.5 |
| 20260830141503 | 82 | 159 | 0.9 | 4.3 | 0.00 | 0.00 | 0.00 | 70 | 1016.3 |
| 20260830140801 | 81 | 132 | 0.9 | 3.5 | 0.00 | 0.00 | 0.00 | 71 | 1016.4 |
| 20260830140104 | 80 | 76 | 0.9 | 4.3 | 0.00 | 0.00 | 0.00 | 71 | 1016.3 |
| 20260830135001 | 79 | 109 | 0.9 | 2.6 | 0.00 | 0.00 | 0.00 | 73 | 1016.4 |
| 20260830134605 | 78 | 76 | 0.9 | 2.6 | 0.00 | 0.00 | 0.00 | 74 | 1016.2 |
| 20260830134101 | 78 | 85 | 0.9 | 2.6 | 0.00 | 0.00 | 0.00 | 74 | 1016.6 |
| 20260830133201 | 76 | 71 | 0.0 | 1.7 | 0.00 | 0.00 | 0.00 | 76 | 1016.5 |
| 20260830133108 | 76 | 22 | 0.0 | 1.7 | 0.00 | 0.00 | 0.00 | 76 | 1016.3 |
| 20260830132301 | 75 | 47 | 0.9 | 2.6 | 0.00 | 0.00 | 0.00 | 78 | 1016.5 |
| 20260830131603 | 74 | 46 | 0.0 | 2.6 | 0.00 | 0.00 | 0.00 | 79 | 1016.3 |
| 20260830131401 | 74 | 62 | 0.0 | 1.7 | 0.00 | 0.00 | 0.00 | 80 | 1016.5 |
| 20260830130501 | 73 | 39 | 0.0 | 2.6 | 0.00 | 0.00 | 0.00 | 81 | 1016.3 |
| 20260830130115 | 72 | 71 | 0.0 | 2.6 | 0.00 | 0.00 | 0.00 | 81 | 1016.1 |
| 20260830125601 | 72 | 26 | 0.9 | 2.6 | 0.00 | 0.00 | 0.00 | 81 | 1016.3 |
| 20260830124701 | 72 | 27 | 0.9 | 2.6 | 0.00 | 0.00 | 0.00 | 82 | 1016.2 |
| 20260830124603 | 71 | 54 | 0.9 | 3.5 | 0.00 | 0.00 | 0.00 | 82 | 1016.1 |
| 20260830123801 | 71 | 9 | 0.9 | 2.6 | 0.00 | 0.00 | 0.00 | 83 | 1016.2 |
| 20260830123007 | 70 | 22 | 0.0 | 3.5 | 0.00 | 0.00 | 0.00 | 83 | 1016.0 |
| 20260830122901 | 71 | 4 | 0.9 | 3.5 | 0.00 | 0.00 | 0.00 | 83 | 1016.2 |
| 20260830122001 | 71 | 20 | 0.9 | 2.6 | 0.00 | 0.00 | 0.00 | 83 | 1016.1 |
| 20260830121503 | 70 | 5 | 0.9 | 2.6 | 0.00 | 0.00 | 0.00 | 83 | 1015.8 |
| 20260830121101 | 71 | 25 | 0.9 | 2.6 | 0.00 | 0.00 | 0.00 | 83 | 1016.0 |
| 20260830120200 | 71 | 10 | 0.9 | 2.6 | 0.00 | 0.00 | 0.00 | 83 | 1015.9 |
| 20260830120005 | 70 | 16 | 0.0 | 2.6 | 0.00 | 0.00 | 0.00 | 83 | 1015.6 |
| 20260830114604 | 70 | 5 | 0.9 | 2.6 | 0.00 | 0.00 | 0.00 | 84 | 1015.5 |
| 20260830114401 | 71 | 6 | 0.9 | 2.6 | 0.00 | 0.00 | 0.00 | 84 | 1015.7 |
| 20260830113501 | 71 | 7 | 0.9 | 2.6 | 0.00 | 0.00 | 0.00 | 84 | 1015.6 |
| 20260830113103 | 70 | 5 | 0.9 | 2.6 | 0.00 | 0.00 | 0.00 | 84 | 1015.3 |
| 20260830112601 | 71 | 17 | 0.0 | 1.7 | 0.00 | 0.00 | 0.00 | 84 | 1015.4 |
| 20260830111700 | 71 | 12 | 0.9 | 1.7 | 0.00 | 0.00 | 0.00 | 84 | 1015.4 |
| 20260830111606 | 70 | 41 | 0.0 | 2.6 | 0.00 | 0.00 | 0.00 | 84 | 1015.2 |
| 20260830110801 | 71 | 0 | 0.0 | 0.0 | 0.00 | 0.00 | 0.00 | 84 | 1015.5 |
| 20260830110002 | 71 | 5 | 0.0 | 0.0 | 0.00 | 0.00 | 0.00 | 83 | 1015.2 |
| 20260830105900 | 71 | 0 | 0.0 | 0.0 | 0.00 | 0.00 | 0.00 | 83 | 1015.4 |
| 20260830105001 | 71 | 0 | 0.0 | 0.0 | 0.00 | 0.00 | 0.00 | 84 | 1015.3 |
| 20260830104604 | 71 | 5 | 0.0 | 0.0 | 0.00 | 0.00 | 0.00 | 84 | 1015.0 |
| 20260830104100 | 71 | 0 | 0.0 | 0.0 | 0.00 | 0.00 | 0.00 | 84 | 1015.2 |
| 20260830103201 | 71 | 0 | 0.0 | 0.0 | 0.00 | 0.00 | 0.00 | 84 | 1015.1 |
| 20260830103105 | 71 | 28 | 0.0 | 0.0 | 0.00 | 0.00 | 0.00 | 84 | 1014.8 |
| 20260830102300 | 71 | 0 | 0.0 | 0.0 | 0.00 | 0.00 | 0.00 | 83 | 1015.0 |
| 20260830101503 | 71 | 31 | 0.0 | 0.9 | 0.00 | 0.00 | 0.00 | 83 | 1014.8 |
| 20260830101401 | 71 | 30 | 0.0 | 0.9 | 0.00 | 0.00 | 0.00 | 83 | 1015.0 |
| 20260830100500 | 71 | 48 | 0.0 | 1.7 | 0.00 | 0.00 | 0.00 | 83 | 1015.0 |
| 20260830100110 | 71 | 43 | 0.0 | 0.9 | 0.00 | 0.00 | 0.00 | 83 | 1014.9 |
| 20260830095600 | 71 | 33 | 0.9 | 1.7 | 0.00 | 0.00 | 0.00 | 82 | 1015.1 |
| 20260830094701 | 71 | 46 | 0.9 | 1.7 | 0.00 | 0.00 | 0.00 | 82 | 1015.0 |
| 20260830094603 | 71 | 65 | 0.0 | 1.7 | 0.00 | 0.00 | 0.00 | 82 | 1014.8 |
| 20260830093800 | 71 | 10 | 0.0 | 2.6 | 0.00 | 0.00 | 0.00 | 81 | 1015.0 |
| 20260830093008 | 71 | 5 | 0.0 | 0.9 | 0.00 | 0.00 | 0.00 | 80 | 1014.9 |
| 20260830092900 | 72 | 19 | 0.0 | 1.7 | 0.00 | 0.00 | 0.00 | 80 | 1015.1 |
| 20260830092000 | 72 | 8 | 0.0 | 1.7 | 0.00 | 0.00 | 0.00 | 80 | 1015.1 |
| 20260830091604 | 72 | 22 | 0.0 | 0.9 | 0.00 | 0.00 | 0.00 | 80 | 1015.0 |
| 20260830091100 | 72 | 15 | 0.0 | 1.7 | 0.00 | 0.00 | 0.00 | 79 | 1015.1 |
| 20260830090201 | 72 | 37 | 0.9 | 1.7 | 0.00 | 0.00 | 0.00 | 79 | 1015.1 |
| 20260830090005 | 72 | 63 | 0.0 | 1.7 | 0.00 | 0.00 | 0.00 | 79 | 1014.8 |
| 20260830085301 | 72 | 26 | 0.0 | 1.7 | 0.00 | 0.00 | 0.00 | 79 | 1015.1 |
| 20260830084636 | 72 | 22 | 0.0 | 1.7 | 0.00 | 0.00 | 0.00 | 78 | 1014.9 |
| 20260830084400 | 72 | 42 | 0.0 | 1.7 | 0.00 | 0.00 | 0.00 | 79 | 1015.0 |
| 20260830083500 | 72 | 34 | 0.0 | 1.7 | 0.00 | 0.00 | 0.00 | 79 | 1015.0 |
| 20260830083002 | 71 | 44 | 0.0 | 0.9 | 0.00 | 0.00 | 0.00 | 79 | 1014.9 |
| 20260830082600 | 72 | 28 | 0.0 | 0.9 | 0.00 | 0.00 | 0.00 | 79 | 1015.1 |
| 20260830081701 | 72 | 0 | 0.0 | 0.0 | 0.00 | 0.00 | 0.00 | 78 | 1015.0 |
| 20260830081508 | 71 | 219 | 0.0 | 0.0 | 0.00 | 0.00 | 0.00 | 79 | 1014.8 |
| 20260830080801 | 71 | 0 | 0.0 | 0.0 | 0.00 | 0.00 | 0.00 | 77 | 1015.0 |
| 20260830080008 | 71 | 57 | 0.0 | 0.0 | 0.00 | 0.00 | 0.00 | 77 | 1014.9 |
| 20260830075900 | 72 | 0 | 0.0 | 0.0 | 0.00 | 0.00 | 0.00 | 76 | 1015.1 |
| 20260830075001 | 72 | 0 | 0.0 | 0.0 | 0.00 | 0.00 | 0.00 | 76 | 1015.2 |
| 20260830074628 | 71 | 57 | 0.0 | 0.0 | 0.00 | 0.00 | 0.00 | 75 | 1015.0 |
| 20260830074100 | 72 | 58 | 0.0 | 0.9 | 0.00 | 0.00 | 0.00 | 75 | 1015.2 |
| 20260830073201 | 72 | 58 | 0.0 | 0.9 | 0.00 | 0.00 | 0.00 | 74 | 1015.3 |
| 20260830073003 | 72 | 57 | 0.0 | 0.9 | 0.00 | 0.00 | 0.00 | 74 | 1015.0 |
| 20260830072300 | 73 | 58 | 0.0 | 0.9 | 0.00 | 0.00 | 0.00 | 73 | 1015.4 |
| 20260830071505 | 73 | 57 | 0.0 | 0.9 | 0.00 | 0.00 | 0.00 | 72 | 1015.1 |
| 20260830071400 | 73 | 58 | 0.0 | 0.9 | 0.00 | 0.00 | 0.00 | 72 | 1015.3 |
| 20260830070500 | 73 | 58 | 0.0 | 0.9 | 0.00 | 0.00 | 0.00 | 71 | 1015.3 |
| 20260830070002 | 73 | 57 | 0.0 | 0.9 | 0.00 | 0.00 | 0.00 | 71 | 1015.2 |
| 20260830064700 | 74 | 0 | 0.0 | 0.0 | 0.00 | 0.00 | 0.00 | 70 | 1015.5 |
| 20260830064504 | 73 | 90 | 0.0 | 0.9 | 0.00 | 0.00 | 0.00 | 69 | 1015.2 |
| 20260830063004 | 74 | 344 | 0.0 | 0.9 | 0.00 | 0.00 | 0.00 | 68 | 1015.2 |
| 20260830062900 | 74 | 12 | 0.0 | 0.9 | 0.00 | 0.00 | 0.00 | 68 | 1015.4 |
| 20260830062000 | 74 | 11 | 0.0 | 0.9 | 0.00 | 0.00 | 0.00 | 68 | 1015.4 |
| 20260830061504 | 74 | 13 | 0.0 | 0.9 | 0.00 | 0.00 | 0.00 | 67 | 1015.2 |
| 20260830061100 | 75 | 5 | 0.0 | 1.7 | 0.00 | 0.00 | 0.00 | 67 | 1015.5 |
| 20260830060003 | 75 | 5 | 0.0 | 1.7 | 0.00 | 0.00 | 0.00 | 67 | 1015.1 |
| 20260830055300 | 75 | 6 | 0.0 | 0.9 | 0.00 | 0.00 | 0.00 | 67 | 1015.2 |
| 20260830054605 | 75 | 5 | 0.0 | 2.6 | 0.00 | 0.00 | 0.00 | 66 | 1015.0 |
| 20260830054401 | 76 | 9 | 0.0 | 2.6 | 0.00 | 0.00 | 0.00 | 66 | 1015.2 |
| 20260830053103 | 76 | 58 | 0.0 | 1.7 | 0.00 | 0.00 | 0.00 | 65 | 1014.8 |
| 20260830052600 | 76 | 35 | 0.0 | 1.7 | 0.00 | 0.00 | 0.00 | 64 | 1015.0 |
| 20260830051700 | 77 | 38 | 0.0 | 1.7 | 0.00 | 0.00 | 0.00 | 63 | 1015.1 |
| 20260830051602 | 76 | 41 | 0.0 | 2.6 | 0.00 | 0.00 | 0.00 | 64 | 1014.9 |
| 20260830050800 | 77 | 16 | 0.0 | 1.7 | 0.00 | 0.00 | 0.00 | 63 | 1015.1 |
| 20260830050124 | 77 | 344 | 0.0 | 1.7 | 0.00 | 0.00 | 0.00 | 61 | 1014.9 |
| 20260830045900 | 78 | 17 | 0.0 | 1.7 | 0.00 | 0.00 | 0.00 | 60 | 1015.1 |
| 20260830044503 | 78 | 342 | 0.0 | 1.7 | 0.00 | 0.00 | 0.00 | 59 | 1014.9 |
| 20260830044100 | 78 | 31 | 0.0 | 1.7 | 0.00 | 0.00 | 0.00 | 59 | 1015.0 |
| 20260830043200 | 79 | 27 | 0.0 | 1.7 | 0.00 | 0.00 | 0.00 | 60 | 1015.0 |
| 20260830043004 | 78 | 60 | 0.0 | 1.7 | 0.00 | 0.00 | 0.00 | 60 | 1014.8 |